Omak, WA

5:12 AM PDT on August 17, 2017 (GMT -0700)
Omak

Weather History for KOMK - January, 2014

Change the Weather History Date:

Sunday, January 19, 2014

  Actual Average Record
Temperature  
Mean Temperature 32 °F 27 °F  
Max Temperature 36 °F 34 °F 52 °F (1944)
Min Temperature 28 °F 21 °F -8 °F (1957)
Degree Days  
Heating Degree Days 33 38  
Month to date heating degree days 635 745  
Since 1 July heating degree days 3535 3494  
Cooling Degree Days 0 0  
Month to date cooling degree days 0 0  
Year to date cooling degree days 0 0  
Moisture  
Dew Point 27 °F    
Average Humidity 81    
Maximum Humidity 92    
Minimum Humidity 70    
Precipitation  
Precipitation 0.00 in 0.05 in 0.69 in (1999)
Month to date precipitation 0.16 1.31  
Year to date precipitation 0.16 1.31  
Sea Level Pressure  
Sea Level Pressure 30.29 in    
Wind  
Wind Speed 6 mph (NNW)    
Max Wind Speed 17 mph    
Max Gust Speed 23 mph    
Visibility 10 miles    
Events      
T = Trace of Precipitation, MM = Missing Value Source: NWS Daily Summary

Daily Weather History Graph

Daily Weather History Graph

Search for Another Location

Airport or City:

Trip Planner

Search our weather history database for the weather conditions in past years. The results will help you decide how hot, cold, wet, or windy it might be!

Date:

Astronomy

Jan. 19, 2014 Rise Set
Actual Time 7:41 AM PST 4:36 PM PST
Civil Twilight 7:06 AM PST 5:11 PM PST
Nautical Twilight 6:27 AM PST 5:50 PM PST
Astronomical Twilight 5:50 AM PST 6:27 PM PST
Moon 8:41 PM PST (1/19) 8:54 AM PST (1/19)
Length of Visible Light 10h 05m
Length of Day
8h 55m
Waning Gibbous, 89% of the Moon is Illuminated
Jan 19
Waning Gibbous
Jan 23
Last Quarter
Jan 30
New
Feb 6
First Quarter
Feb 14
Full

Hourly Weather History & Observations

Time (PST) Temp. Windchill Dew Point Humidity Pressure Visibility Wind Dir Wind Speed Gust Speed Precip Events Conditions
12:45 AM 28.9 °F 25.2 °F 27.0 °F 92% 30.21 in 7.0 mi South 3.5 mph - N/A   Overcast
12:53 AM 28.9 °F 25.2 °F 27.0 °F 92% 30.26 in 7.0 mi South 3.5 mph - N/A   Overcast
1:53 AM 28.9 °F 25.2 °F 27.0 °F 92% 30.26 in 9.0 mi SSE 3.5 mph - N/A   Overcast
2:28 AM 30.0 °F 24.1 °F 27.0 °F 88% 30.21 in 9.0 mi South 5.8 mph - N/A   Overcast
2:53 AM 30.0 °F 25.2 °F 27.0 °F 88% 30.26 in 10.0 mi South 4.6 mph - N/A   Overcast
3:27 AM 30.0 °F 25.2 °F 27.0 °F 88% 30.20 in 10.0 mi South 4.6 mph - N/A   Overcast
3:53 AM 30.0 °F 26.5 °F 27.0 °F 88% 30.25 in 10.0 mi South 3.5 mph - N/A   Overcast
4:11 AM 30.0 °F - 27.0 °F 88% 30.20 in 10.0 mi Calm Calm - N/A   Overcast
4:53 AM 30.0 °F - 27.0 °F 88% 30.23 in 10.0 mi Calm Calm - N/A   Overcast
5:53 AM 30.0 °F 25.2 °F 27.0 °F 88% 30.25 in 10.0 mi North 4.6 mph - N/A   Overcast
6:53 AM 30.0 °F - 27.0 °F 88% 30.25 in 10.0 mi Calm Calm - N/A   Overcast
7:50 AM 30.2 °F 26.7 °F 26.6 °F 86% 30.20 in 10.0 mi SE 3.5 mph - N/A   Overcast
7:53 AM 30.0 °F - 27.0 °F 88% 30.25 in 10.0 mi Calm Calm - N/A   Overcast
8:38 AM 30.0 °F - 27.0 °F 88% 30.22 in 9.0 mi Calm Calm - N/A   Overcast
8:53 AM 30.0 °F 26.5 °F 27.0 °F 88% 30.27 in 9.0 mi WSW 3.5 mph - N/A   Overcast
9:53 AM 30.9 °F - 27.0 °F 85% 30.30 in 10.0 mi Calm Calm - N/A   Mostly Cloudy
10:53 AM 33.1 °F - 27.0 °F 78% 30.31 in 10.0 mi Calm Calm - N/A   Scattered Clouds
11:53 AM 33.1 °F 28.7 °F 27.0 °F 78% 30.28 in 10.0 mi NNW 4.6 mph - N/A   Clear
12:42 PM 35.1 °F 31.0 °F 27.0 °F 72% 30.23 in 10.0 mi Variable 4.6 mph - N/A   Mostly Cloudy
12:53 PM 34.0 °F 29.8 °F 27.0 °F 75% 30.28 in 10.0 mi ESE 4.6 mph - N/A   Overcast
1:53 PM 33.1 °F - 27.0 °F 78% 30.30 in 10.0 mi Calm Calm - N/A   Overcast
2:53 PM 35.1 °F 29.3 °F 27.0 °F 72% 30.30 in 10.0 mi North 6.9 mph - N/A   Overcast
3:23 PM 35.1 °F 26.9 °F 27.0 °F 72% 30.26 in 10.0 mi North 11.5 mph - N/A   Scattered Clouds
3:53 PM 35.1 °F 26.4 °F 27.0 °F 72% 30.32 in 10.0 mi North 12.7 mph - N/A   Clear
4:53 PM 33.1 °F 22.2 °F 27.0 °F 78% 30.33 in 10.0 mi NNW 17.3 mph - N/A   Clear
5:37 PM 34.0 °F 25.5 °F 27.0 °F 75% 30.30 in 10.0 mi NNW 11.5 mph 19.6 mph N/A   Mostly Cloudy
5:53 PM 33.1 °F 23.9 °F 27.0 °F 78% 30.34 in 10.0 mi NNW 12.7 mph - N/A   Overcast
6:11 PM 32.0 °F 22.5 °F 27.0 °F 82% 30.30 in 10.0 mi North 12.7 mph - N/A   Scattered Clouds
6:46 PM 33.1 °F 24.4 °F 27.0 °F 78% 30.32 in 10.0 mi North 11.5 mph - N/A   Mostly Cloudy
6:53 PM 33.1 °F 23.4 °F 27.0 °F 78% 30.37 in 10.0 mi North 13.8 mph 18.4 mph N/A   Mostly Cloudy
7:41 PM 33.1 °F 23.0 °F 27.0 °F 78% 30.34 in 10.0 mi NNW 15.0 mph - N/A   Scattered Clouds
7:53 PM 33.1 °F 23.4 °F 27.0 °F 78% 30.39 in 10.0 mi NNW 13.8 mph - N/A   Clear
8:53 PM 32.0 °F 22.5 °F 27.0 °F 82% 30.40 in 10.0 mi NNW 12.7 mph - N/A   Clear
9:53 PM 32.0 °F 24.2 °F 27.0 °F 82% 30.43 in 10.0 mi NNW 9.2 mph - N/A   Partly Cloudy
10:53 PM 28.9 °F - 25.0 °F 85% 30.46 in 10.0 mi Calm Calm - N/A   Clear
11:53 PM 28.0 °F 24.2 °F 25.0 °F 88% 30.47 in 10.0 mi NW 3.5 mph - N/A   Scattered Clouds